GSAT 0206 (PRN E30)

Last updated on May 30, 2016, 1:44 a.m. UTC

1 40890U 15045B   16150.60941225 -.00000038  00000-0  00000+0 0  9999
2 40890  57.2683 322.5506 0002165  32.3415 327.6741  1.70474747  4464
UTC
Height (km)
Latitude
Longitude
Inclination
Orbital Period
UTC large
Height (km)
Speed (km/s)
/
Latitude / Longitude
Inclination (degrees)
Orbital Period (minutes)
Azimuth
Elevation
Range (km)
Doppler Factor
iOS Compass Heading
iOS Angle

Next 30 passes for location: Hong Kong

Rise time Rise Azimuth (degrees) Set time Set Azimuth (degrees) Duration Max altitude (degrees)

No matching passes for this satellites